Weather History for La Paz, Mexico

Change the Weather History Date:

Thursday, March 27, 2014

  Actual Average Record
Temperature  
Mean Temperature 74 °F -  
Max Temperature 86 °F 85 °F 100 °F (2007)
Min Temperature 62 °F 57 °F 50 °F (2012)
Cooling Degree Days 9    
Growing Degree Days 24 (Base 50)    
Moisture  
Dew Point 38 °F    
Average Humidity 31    
Maximum Humidity 77    
Minimum Humidity 8    
Precipitation  
Precipitation 0.00 in - - ()
Sea Level Pressure  
Sea Level Pressure 29.97 in    
Wind  
Wind Speed 6 mph ()    
Max Wind Speed 14 mph    
Max Gust Speed -    
Visibility 9.9 miles    
Events      
Averages and records for this station are not official NWS values.
T = Trace of Precipitation, MM = Missing Value Source: Averaged Metar Reports

Daily Weather History Graph

Daily Weather History Graph

Search for Another Location

Airport:

Trip Planner

Search our weather history database for the weather conditions in past years. The results will help you decide how hot, cold, wet, or windy it might be!

Date:

Astronomy

Mar. 27, 2014 Rise Set
Actual Time 6:18 AM MST 6:35 PM MST
Civil Twilight 5:55 AM MST 6:58 PM MST
Nautical Twilight 5:29 AM MST 7:24 PM MST
Astronomical Twilight 5:02 AM MST 7:51 PM MST
Moon 3:51 AM MST (3/27) 3:44 PM MST (3/27)
Length of Visible Light 13h 02m
Length of Day
12h 17m
Waning Crescent, 12% of the Moon is Illuminated
Mar 27
Waning Crescent
Mar 30
New
Apr 7
First Quarter
Apr 15
Full
Apr 22
Last Quarter

Hourly Weather History & Observations

Time (MST) Temp. Dew Point Humidity Pressure Visibility Wind Dir Wind Speed Gust Speed Precip Events Conditions
1:45 AM 66 °F 57 °F 66% 29.92 in 2 mi South 8.9 mph - -   Mostly Cloudy
4:50 AM 65 °F 56 °F 66% 29.93 in 2 mi South 4.5 mph - -   Mostly Cloudy
5:59 AM 59.0 °F 51.8 °F 77% 29.95 in 10.0 mi South 6.9 mph - N/A   Scattered Clouds
7:43 AM 64.4 °F 50.0 °F 59% 29.99 in 10.0 mi South 6.9 mph - N/A   Mostly Cloudy
7:50 AM 66 °F 55 °F 59% 29.98 in 12 mi South 4.5 mph - -   Mostly Cloudy
8:40 AM 69.8 °F 41.0 °F 35% 30.01 in 10.0 mi South 9.2 mph - N/A   Scattered Clouds
9:44 AM 77.0 °F 30.2 °F 18% 30.02 in 10.0 mi Calm Calm - N/A   Scattered Clouds
10:41 AM 80.6 °F 24.8 °F 13% 30.01 in 10.0 mi Calm Calm - N/A   Scattered Clouds
10:50 AM 84 °F 35 °F 9% 30.00 in 19 mi West 4.5 mph - -   Mostly Cloudy
11:51 AM 82.4 °F 24.8 °F 12% 30.01 in 10.0 mi North 9.2 mph - N/A   Mostly Cloudy
12:40 PM 82.4 °F 19.4 °F 10% 29.98 in 10.0 mi North 9.2 mph - N/A   Mostly Cloudy
1:40 PM 84.2 °F 19.4 °F 9% 29.95 in 10.0 mi North 13.8 mph - N/A   Mostly Cloudy
1:50 PM 87 °F 35 °F 8% 29.96 in 19 mi NNW 8.9 mph - -   Clear
2:50 PM 84.2 °F 19.4 °F 9% 29.93 in 10.0 mi North 11.5 mph - N/A   Mostly Cloudy
3:44 PM 82.4 °F 26.6 °F 13% 29.92 in 10.0 mi North 13.8 mph - N/A   Mostly Cloudy
4:40 PM 82.4 °F 17.6 °F 9% 29.92 in 10.0 mi NW 13.8 mph - N/A   Mostly Cloudy
4:50 PM 84 °F 36 °F 10% 29.92 in 19 mi NW 6.7 mph - -   Mostly Cloudy
5:52 PM 78.8 °F 35.6 °F 21% 29.93 in 10.0 mi North 11.5 mph - N/A   Mostly Cloudy
6:49 PM 75.2 °F 39.2 °F 27% 29.94 in 10.0 mi NNE 6.9 mph - N/A   Mostly Cloudy
7:50 PM 75 °F 49 °F 29% 29.94 in 2 mi NE 2.2 mph - -   Scattered Clouds
8:06 PM 71.6 °F 39.2 °F 31% 29.97 in 10.0 mi North 6.9 mph - N/A   Scattered Clouds
8:45 PM 69.8 °F 44.6 °F 40% 29.98 in 10.0 mi West 5.8 mph - N/A   Scattered Clouds
9:40 PM 64.4 °F 46.4 °F 52% 30.01 in 10.0 mi Calm Calm - N/A   Partly Cloudy
10:40 PM 64.4 °F 41.0 °F 42% 30.01 in 10.0 mi South 5.8 mph - N/A   Partly Cloudy
10:45 PM 71 °F 51 °F 39% 29.97 in 2 mi South 4.5 mph - -   Scattered Clouds